When you browse on this site, cookies collect data to enhance your experience and personalize the content and advertising you see.
Visit our Privacy Policy to learn more. By continuing to use the site, you agree to this use of cookies and data.
  • în România
  • Lista ţărilor
  • Pe 7 zile
  • Temperatura apei
  • Meteo pe hartă
  • Widget-uri
  • user-avatar
    Intrare

    Meteo pe oră la Tonton

    Astăzi, 1 Iunie, Luni

    Timp Temperatura Precipitaţii Vânt Presiune Umiditate
    00:00 +10°C° 0 mm 4 m/s 765 mmHg 79%
    01:00 +10°C° 0 mm 3 m/s 764 mmHg 81%
    02:00 +9°C° 0 mm 3 m/s 764 mmHg 83%
    03:00 +8°C° 0 mm 3 m/s 764 mmHg 85%
    04:00 +9°C° 0 mm 3 m/s 765 mmHg 85%
    05:00 +10°C° 0 mm 4 m/s 765 mmHg 85%
    06:00 +11°C° 0 mm 4 m/s 765 mmHg 84%
    07:00 +13°C° 0 mm 4 m/s 765 mmHg 81%
    08:00 +15°C° 0 mm 4 m/s 765 mmHg 78%
    09:00 +17°C° 0 mm 5 m/s 765 mmHg 75%
    10:00 +19°C° 0 mm 5 m/s 765 mmHg 71%
    11:00 +20°C° 0 mm 5 m/s 765 mmHg 68%
    12:00 +22°C° 0 mm 4 m/s 765 mmHg 64%
    13:00 +22°C° 0 mm 4 m/s 765 mmHg 63%
    14:00 +22°C° 0 mm 3 m/s 765 mmHg 63%
    15:00 +22°C° 0 mm 3 m/s 765 mmHg 63%
    16:00 +22°C° 0 mm 3 m/s 764 mmHg 67%
    17:00 +21°C° 0 mm 3 m/s 764 mmHg 71%
    18:00 +21°C° 0 mm 3 m/s 764 mmHg 76%
    19:00 +19°C° 0 mm 3 m/s 764 mmHg 81%
    20:00 +18°C° 0 mm 3 m/s 765 mmHg 85%
    21:00 +16°C° 0 mm 2 m/s 765 mmHg 90%
    22:00 +15°C° 0 mm 2 m/s 765 mmHg 91%
    23:00 +15°C° 0 mm 2 m/s 765 mmHg 92%

    Mâine, 2 Iunie, Marţi

    Timp Temperatura Precipitaţii Vânt Presiune Umiditate
    00:00 +14°C° 0 mm 2 m/s 765 mmHg 93%
    01:00 +14°C° 0 mm 2 m/s 765 mmHg 93%
    02:00 +13°C° 0 mm 2 m/s 765 mmHg 93%
    03:00 +13°C° 0 mm 2 m/s 764 mmHg 93%
    04:00 +13°C° 0 mm 2 m/s 764 mmHg 93%
    05:00 +14°C° 0 mm 2 m/s 764 mmHg 93%
    06:00 +15°C° 0 mm 2 m/s 764 mmHg 93%
    07:00 +16°C° 0 mm 2 m/s 764 mmHg 87%
    08:00 +18°C° 0 mm 2 m/s 764 mmHg 82%
    09:00 +19°C° 0 mm 3 m/s 764 mmHg 77%
    10:00 +20°C° 0 mm 2 m/s 764 mmHg 72%
    11:00 +21°C° 0 mm 2 m/s 764 mmHg 68%
    12:00 +23°C° 0 mm 2 m/s 763 mmHg 64%
    13:00 +23°C° 0 mm 2 m/s 763 mmHg 63%
    14:00 +23°C° 0 mm 2 m/s 762 mmHg 62%
    15:00 +23°C° 0 mm 2 m/s 762 mmHg 61%
    16:00 +21°C° 0 mm 3 m/s 762 mmHg 65%
    17:00 +21°C° 0 mm 3 m/s 761 mmHg 70%
    18:00 +20°C° 0 mm 3 m/s 761 mmHg 74%
    19:00 +18°C° 0 mm 3 m/s 760 mmHg 79%
    20:00 +17°C° 0 mm 3 m/s 760 mmHg 83%
    21:00 +15°C° 0 mm 2 m/s 760 mmHg 88%
    22:00 +15°C° 0 mm 2 m/s 760 mmHg 87%
    23:00 +14°C° 0 mm 2 m/s 759 mmHg 87%

    Poimâine, 3 Iunie, Miercuri

    Timp Temperatura Precipitaţii Vânt Presiune Umiditate
    00:00 +14°C° 0 mm 2 m/s 759 mmHg 86%
    01:00 +14°C° 0.2 mm 2 m/s 758 mmHg 87%
    02:00 +13°C° 0.2 mm 2 m/s 757 mmHg 88%
    03:00 +13°C° 0.2 mm 2 m/s 757 mmHg 88%
    04:00 +13°C° 0.2 mm 2 m/s 756 mmHg 88%
    05:00 +14°C° 0.2 mm 2 m/s 756 mmHg 89%
    06:00 +15°C° 0.2 mm 2 m/s 755 mmHg 89%
    07:00 +15°C° 0.3 mm 2 m/s 755 mmHg 89%
    08:00 +15°C° 0.3 mm 2 m/s 755 mmHg 90%
    09:00 +14°C° 0.3 mm 3 m/s 755 mmHg 90%
    10:00 +14°C° 1.2 mm 3 m/s 755 mmHg 92%
    11:00 +14°C° 1.2 mm 3 m/s 754 mmHg 93%
    12:00 +14°C° 1.2 mm 2 m/s 754 mmHg 95%
    13:00 +13°C° 0.8 mm 3 m/s 754 mmHg 94%
    14:00 +14°C° 0.8 mm 4 m/s 754 mmHg 94%
    15:00 +14°C° 0.8 mm 5 m/s 754 mmHg 94%
    16:00 +13°C° 0.2 mm 5 m/s 754 mmHg 94%
    17:00 +13°C° 0.2 mm 5 m/s 754 mmHg 93%
    18:00 +11°C° 0.2 mm 6 m/s 754 mmHg 93%
    19:00 +10°C° 0 mm 5 m/s 754 mmHg 93%
    20:00 +10°C° 0 mm 5 m/s 754 mmHg 93%
    21:00 +10°C° 0 mm 4 m/s 755 mmHg 93%
    22:00 +9°C° 0 mm 5 m/s 755 mmHg 93%
    23:00 +10°C° 0 mm 5 m/s 755 mmHg 93%

    4 Iunie, Joi

    Timp Temperatura Precipitaţii Vânt Presiune Umiditate
    00:00 +10°C° 0 mm 5 m/s 755 mmHg 93%
    01:00 +9°C° 0 mm 5 m/s 754 mmHg 93%
    02:00 +9°C° 0 mm 5 m/s 754 mmHg 94%
    03:00 +9°C° 0 mm 5 m/s 754 mmHg 94%
    04:00 +10°C° 0 mm 4 m/s 754 mmHg 93%
    05:00 +10°C° 0 mm 4 m/s 754 mmHg 91%
    06:00 +10°C° 0 mm 4 m/s 754 mmHg 90%
    07:00 +11°C° 0 mm 4 m/s 754 mmHg 84%
    08:00 +12°C° 0 mm 4 m/s 753 mmHg 77%
    09:00 +13°C° 0 mm 4 m/s 753 mmHg 71%
    10:00 +13°C° 0.1 mm 5 m/s 753 mmHg 72%
    11:00 +14°C° 0.1 mm 6 m/s 753 mmHg 72%
    12:00 +14°C° 0.1 mm 6 m/s 753 mmHg 73%
    13:00 +14°C° 0.1 mm 7 m/s 753 mmHg 71%
    14:00 +14°C° 0.1 mm 7 m/s 752 mmHg 70%
    15:00 +13°C° 0.1 mm 8 m/s 752 mmHg 68%
    16:00 +14°C° 0.3 mm 7 m/s 752 mmHg 73%
    17:00 +12°C° 0.3 mm 7 m/s 752 mmHg 77%
    18:00 +11°C° 0.3 mm 7 m/s 751 mmHg 81%
    19:00 +10°C° 0.1 mm 6 m/s 751 mmHg 84%
    20:00 +10°C° 0.1 mm 5 m/s 751 mmHg 86%
    21:00 +9°C° 0.1 mm 5 m/s 751 mmHg 89%
    22:00 +8°C° 0.1 mm 4 m/s 751 mmHg 90%
    23:00 +8°C° 0.1 mm 4 m/s 751 mmHg 92%

    5 Iunie, Vineri

    Timp Temperatura Precipitaţii Vânt Presiune Umiditate
    00:00 +8°C° 0.1 mm 4 m/s 751 mmHg 93%
    01:00 +8°C° 0 mm 4 m/s 751 mmHg 93%
    02:00 +7°C° 0 mm 4 m/s 751 mmHg 93%
    03:00 +7°C° 0 mm 4 m/s 751 mmHg 93%
    04:00 +8°C° 0 mm 4 m/s 751 mmHg 92%
    05:00 +9°C° 0 mm 3 m/s 751 mmHg 91%
    06:00 +10°C° 0 mm 3 m/s 752 mmHg 90%
    07:00 +11°C° 0 mm 4 m/s 752 mmHg 85%
    08:00 +12°C° 0 mm 5 m/s 752 mmHg 80%
    09:00 +13°C° 0 mm 5 m/s 752 mmHg 75%
    10:00 +14°C° 0 mm 6 m/s 752 mmHg 71%
    11:00 +15°C° 0 mm 6 m/s 752 mmHg 68%
    12:00 +15°C° 0 mm 7 m/s 752 mmHg 64%
    13:00 +15°C° 0 mm 7 m/s 752 mmHg 64%
    14:00 +14°C° 0 mm 7 m/s 751 mmHg 64%
    15:00 +14°C° 0 mm 7 m/s 751 mmHg 64%
    16:00 +14°C° 0 mm 7 m/s 751 mmHg 68%
    17:00 +14°C° 0 mm 7 m/s 751 mmHg 72%
    18:00 +14°C° 0 mm 7 m/s 750 mmHg 76%
    19:00 +13°C° 0.1 mm 6 m/s 750 mmHg 81%
    20:00 +13°C° 0.1 mm 6 m/s 750 mmHg 85%
    21:00 +13°C° 0.1 mm 5 m/s 750 mmHg 90%
    22:00 +12°C° 0.1 mm 5 m/s 750 mmHg 91%
    23:00 +10°C° 0.1 mm 5 m/s 750 mmHg 91%

    6 Iunie, Sâmbătă

    Timp Temperatura Precipitaţii Vânt Presiune Umiditate
    00:00 +10°C° 0.1 mm 5 m/s 750 mmHg 92%
    01:00 +9°C° 0 mm 5 m/s 750 mmHg 92%
    02:00 +9°C° 0 mm 5 m/s 750 mmHg 93%
    03:00 +8°C° 0 mm 5 m/s 750 mmHg 93%
    04:00 +9°C° 0 mm 5 m/s 750 mmHg 93%
    05:00 +9°C° 0 mm 5 m/s 751 mmHg 92%
    06:00 +9°C° 0 mm 5 m/s 751 mmHg 92%
    07:00 +10°C° 0 mm 6 m/s 751 mmHg 84%
    08:00 +11°C° 0 mm 6 m/s 752 mmHg 77%
    09:00 +12°C° 0 mm 7 m/s 752 mmHg 69%
    10:00 +14°C° 0 mm 7 m/s 752 mmHg 65%
    11:00 +14°C° 0 mm 7 m/s 753 mmHg 61%
    12:00 +15°C° 0 mm 7 m/s 753 mmHg 56%
    13:00 +13°C° 0 mm 8 m/s 753 mmHg 56%
    14:00 +13°C° 0 mm 8 m/s 753 mmHg 56%
    15:00 +13°C° 0 mm 8 m/s 753 mmHg 55%
    16:00 +12°C° 0 mm 7 m/s 753 mmHg 58%
    17:00 +12°C° 0 mm 7 m/s 753 mmHg 60%
    18:00 +11°C° 0 mm 7 m/s 753 mmHg 62%
    19:00 +9°C° 0 mm 6 m/s 754 mmHg 70%
    20:00 +8°C° 0 mm 5 m/s 754 mmHg 77%
    21:00 +6°C° 0 mm 4 m/s 754 mmHg 85%
    22:00 +6°C° 0 mm 4 m/s 754 mmHg 84%
    23:00 +5°C° 0 mm 4 m/s 754 mmHg 84%
    Arată mai mult